Temp
70 70 72 73 74 73 70 69 67 65 65 65 65 65 64 62 62 62 61 61 60 57
67 68 67 69 71 69 67 63 65 64 62 62 62 61 60 59 58 58 57 50 47 45
64 65 66 67 66 67 64 62 60 60 59 58 58 57 56 54 51 48 45 44 42 41
61 62 63 63 64 63 61 59 58 57 56 55 54 54 51 50 48 45 43 43 41 39
56 57 57 58 60 60 59 58 57 56 55 54 52 50 48 46 44 42 40 40 39 38
53 54 54 54 55 56 57 56 56 55 53 51 49 48 47 45 43 41 40 40 39 38
49 49 49 49 49 49 50 49 48 48 47 46 45 44 44 43 41 41 40 40 40 39
46 46 46 45 45 45 45 45 44 43 43 43 42 42 40 38 37 36 35 34 35 35
44 43 43 44 43 43 42 42 42 41 41 41 42 43 42 38 36 35 34 32 32 35
42 43 43 44 43 42 41 41 39 39 39 38 38 40 39 37 32 32 32 32 33 36
40 39 39 39 38 38 38 37 37 36 37 37 39 40 39 37 33 35 36 37 37 37
39 38 38 36 35 36 35 34 33 34 34 34 36 40 40 40 40 37 35 35 35 39
37 36 35 35 34 34 35 35 36 35 38 40 38 40 40 39 37 36 37 39 39 37
36 36 36 36 36 36 36 36 36 37 39 40 41 40 40 41 40 38 37 37 37 37
MSLP
1010.05 1009.93 1009.72 1009.59 1009.56 1009.71 1010.27 1011.06 1011.36 1011.82 1012.07 1012.23 1012.46 1012.68 1012.95 1013.28 1013.50 1014.03 1014.50 1014.88 1015.24 1016.00
1010.30 1010.14 1010.20 1009.98 1009.90 1010.14 1010.59 1010.98 1011.12 1011.37 1011.75 1012.10 1012.35 1012.57 1012.80 1013.06 1013.46 1013.97 1014.47 1015.29 1016.06 1017.05
1010.71 1010.60 1010.36 1010.25 1010.26 1010.27 1010.72 1011.23 1011.41 1011.57 1011.87 1012.25 1012.52 1012.67 1012.92 1013.35 1013.77 1014.38 1015.29 1015.83 1016.55 1017.59
1010.94 1010.75 1010.58 1010.54 1010.61 1010.87 1011.28 1011.69 1011.89 1012.02 1012.34 1012.70 1013.01 1013.29 1013.67 1014.12 1014.67 1015.37 1016.08 1016.76 1017.17 1017.95
1011.71 1011.57 1011.42 1011.34 1011.39 1011.64 1011.82 1012.08 1012.27 1012.49 1012.75 1013.06 1013.47 1013.90 1014.32 1014.82 1015.51 1016.00 1016.60 1017.24 1017.86 1018.46
1012.35 1012.13 1012.17 1012.17 1012.22 1012.27 1012.33 1012.54 1012.81 1013.20 1013.58 1014.09 1014.42 1014.78 1015.27 1015.75 1016.27 1016.98 1017.68 1018.04 1018.29 1018.71
1013.43 1013.41 1013.42 1013.37 1013.35 1013.46 1013.53 1013.75 1014.08 1014.32 1014.80 1015.23 1015.54 1015.89 1016.47 1016.94 1017.47 1017.80 1018.38 1019.02 1019.45 1019.68
1014.42 1014.52 1014.52 1014.43 1014.50 1014.69 1014.84 1015.08 1015.34 1015.45 1015.78 1016.00 1016.20 1016.82 1017.38 1017.89 1018.47 1019.05 1019.39 1019.82 1020.29 1020.32
1015.18 1015.27 1015.38 1015.48 1015.54 1015.62 1015.84 1016.08 1016.23 1016.40 1016.53 1016.78 1017.25 1017.48 1017.64 1018.42 1019.12 1019.77 1019.88 1020.25 1021.02 1020.26
1015.86 1015.90 1015.94 1015.98 1016.04 1016.32 1016.57 1016.90 1017.22 1017.49 1017.73 1017.95 1018.10 1018.49 1018.88 1019.38 1019.68 1020.09 1020.45 1020.84 1021.21 1021.00
1016.61 1016.61 1016.69 1016.96 1016.92 1017.06 1017.41 1017.70 1017.97 1018.23 1018.50 1018.59 1019.00 1019.26 1019.47 1019.95 1020.45 1020.80 1020.98 1021.13 1021.23 1021.05
1016.85 1017.07 1017.32 1017.65 1017.98 1018.26 1018.53 1018.69 1018.96 1019.19 1019.32 1019.43 1019.68 1019.91 1020.10 1020.26 1020.53 1020.86 1021.11 1021.17 1021.26 1021.12
1017.38 1017.59 1017.93 1018.31 1018.67 1018.89 1019.25 1019.28 1019.52 1019.79 1019.90 1020.15 1020.39 1020.61 1020.62 1020.67 1020.80 1020.77 1020.83 1021.07 1021.25 1021.54
1017.99 1018.13 1018.51 1018.88 1019.19 1019.41 1019.69 1019.87 1019.93 1020.05 1020.16 1020.29 1020.46 1020.70 1020.79 1020.78 1020.75 1020.93 1021.03 1021.14 1021.28 1021.39
Wind_Speed
7 6 8 10 8 7 5 9 5 6 8 9 9 9 8 7 7 9 9 10 4 2
7 7 7 9 8 6 6 3 3 5 6 7 7 6 6 6 6 5 4 6 8 6
8 8 7 6 7 7 1 3 2 2 1 1 1 2 3 3 4 7 4 6 10 7
7 7 7 6 6 5 4 3 1 2 4 3 3 4 5 5 6 8 7 7 10 10
6 6 5 4 3 2 1 2 2 3 4 5 5 6 6 7 7 8 9 9 9 10
7 6 6 6 6 7 6 7 8 8 7 7 7 7 7 8 9 9 8 8 8 9
9 9 9 9 9 9 10 10 10 11 11 10 10 11 10 10 10 10 10 8 7 6
8 9 9 10 10 10 11 11 11 12 11 11 11 9 11 11 11 9 9 8 6 6
8 9 9 9 10 11 11 11 10 11 11 11 8 19 20 13 9 8 7 7 5 5
8 8 8 9 11 11 11 11 11 11 12 12 12 19 19 17 9 7 7 7 3 4
7 8 9 9 10 10 9 9 9 10 10 11 10 18 18 16 7 5 6 5 4 4
7 8 9 9 9 8 8 9 9 9 10 10 9 13 11 9 6 6 6 4 2 1
6 8 9 8 8 7 8 8 7 8 9 11 9 10 9 7 4 4 3 3 3 3
7 9 9 8 7 8 8 8 8 7 7 8 8 7 8 7 4 3 3 2 2 2
Wind_Direction
265 263 266 254 258 256 235 250 225 243 239 230 230 223 217 220 219 213 226 225 205 135
285 270 267 277 266 261 285 313 278 210 198 220 220 217 203 197 195 197 182 86 83 87
301 294 287 279 279 284 232 341 347 29 136 160 192 159 132 117 94 109 102 114 109 107
321 316 315 305 306 345 353 327 321 103 116 125 112 95 88 89 105 108 111 116 119 116
355 349 348 337 329 310 222 109 99 104 105 104 100 99 110 116 121 127 129 125 120 127
22 29 35 36 38 45 57 65 62 64 71 75 81 87 88 98 104 102 105 115 128 131
38 41 53 55 59 60 61 69 66 71 74 75 74 75 79 83 85 90 87 83 74 86
52 55 58 62 66 68 70 76 82 86 85 86 83 84 81 80 81 77 81 75 72 74
66 69 69 72 74 75 77 79 82 80 85 84 88 99 99 95 84 75 80 85 69 79
76 80 88 86 88 87 83 83 77 75 82 79 79 84 84 79 68 72 72 77 93 106
92 90 83 83 84 82 86 84 83 83 78 79 84 92 94 98 102 111 109 109 93 70
102 93 97 89 76 81 82 80 78 78 84 88 91 98 114 121 113 93 74 67 106 326
96 98 92 89 94 90 93 95 98 101 102 107 103 97 88 94 123 130 142 118 99 63
94 97 101 99 98 102 104 106 103 104 106 104 101 96 74 52 60 45 45 34 33 47